When you browse on this site, cookies collect data to enhance your experience and personalize the content and advertising you see.
Visit our Privacy Policy to learn more. By continuing to use the site, you agree to this use of cookies and data.
  • en Suisse
  • Liste des pays
  • À 7 jours
  • Température de l'eau
  • Carte météo
  • Widgets météo
  • user-avatar
    Se connecter

    Météo par heure à Volodarskoe

    Ce jour, 23 Février, Dimanche

    Heure Température Précipitation Vent Pression Humidité
    00:00 +1°C° 0 mm 2 m/s 756 mmHg 96%
    01:00 +1°C° 0 mm 3 m/s 756 mmHg 95%
    02:00 0°C° 0 mm 3 m/s 757 mmHg 94%
    03:00 +1°C° 0 mm 2 m/s 756 mmHg 93%
    04:00 +1°C° 0 mm 2 m/s 756 mmHg 93%
    05:00 +1°C° 0 mm 2 m/s 756 mmHg 92%
    06:00 0°C° 0 mm 3 m/s 756 mmHg 90%
    07:00 0°C° 0 mm 3 m/s 756 mmHg 88%
    08:00 0°C° 0 mm 4 m/s 756 mmHg 87%
    09:00 0°C° 0 mm 4 m/s 755 mmHg 81%
    10:00 +1°C° 0 mm 5 m/s 755 mmHg 76%
    11:00 +2°C° 0 mm 6 m/s 755 mmHg 70%
    12:00 +2°C° 0 mm 6 m/s 754 mmHg 69%
    13:00 +3°C° 0 mm 7 m/s 754 mmHg 68%
    14:00 +2°C° 0 mm 8 m/s 753 mmHg 68%
    15:00 +1°C° 0 mm 8 m/s 753 mmHg 70%
    16:00 +1°C° 0 mm 8 m/s 752 mmHg 71%
    17:00 +1°C° 0 mm 8 m/s 752 mmHg 73%
    18:00 +1°C° 0 mm 8 m/s 751 mmHg 74%
    19:00 +1°C° 0 mm 8 m/s 751 mmHg 75%
    20:00 +1°C° 0 mm 8 m/s 751 mmHg 75%
    21:00 +1°C° 0 mm 9 m/s 750 mmHg 78%
    22:00 +1°C° 0 mm 9 m/s 750 mmHg 81%
    23:00 +1°C° 0 mm 9 m/s 749 mmHg 84%

    Demain, 24 Février, Lundi

    Heure Température Précipitation Vent Pression Humidité
    00:00 +1°C° 0.1 mm 9 m/s 749 mmHg 87%
    01:00 +1°C° 0.1 mm 8 m/s 748 mmHg 90%
    02:00 +1°C° 0.1 mm 8 m/s 748 mmHg 93%
    03:00 +1°C° 0.4 mm 8 m/s 747 mmHg 92%
    04:00 +1°C° 0.4 mm 8 m/s 746 mmHg 92%
    05:00 0°C° 0.4 mm 9 m/s 745 mmHg 91%
    06:00 0°C° 0.8 mm 9 m/s 744 mmHg 93%
    07:00 0°C° 0.8 mm 10 m/s 743 mmHg 94%
    08:00 0°C° 0.8 mm 10 m/s 742 mmHg 96%
    09:00 -1°C° 1.3 mm 11 m/s 740 mmHg 95%
    10:00 0°C° 1.3 mm 12 m/s 739 mmHg 95%
    11:00 0°C° 1.3 mm 13 m/s 738 mmHg 94%
    12:00 0°C° 1.6 mm 12 m/s 736 mmHg 94%
    13:00 +2°C° 1.6 mm 12 m/s 735 mmHg 94%
    14:00 +2°C° 1.6 mm 11 m/s 734 mmHg 94%
    15:00 +2°C° 0.4 mm 11 m/s 733 mmHg 90%
    16:00 +2°C° 0.4 mm 10 m/s 732 mmHg 87%
    17:00 +2°C° 0.4 mm 9 m/s 731 mmHg 83%
    18:00 +2°C° 0.2 mm 9 m/s 732 mmHg 87%
    19:00 +1°C° 0.2 mm 8 m/s 732 mmHg 91%
    20:00 0°C° 0.2 mm 8 m/s 732 mmHg 94%
    21:00 0°C° 0.3 mm 10 m/s 733 mmHg 94%
    22:00 -2°C° 0.3 mm 12 m/s 734 mmHg 93%
    23:00 -4°C° 0.3 mm 14 m/s 735 mmHg 93%

    Après-demain, 25 Février, Mardi

    Heure Température Précipitation Vent Pression Humidité
    00:00 -4°C° 0.4 mm 14 m/s 737 mmHg 91%
    01:00 -4°C° 0.4 mm 14 m/s 738 mmHg 90%
    02:00 -4°C° 0.4 mm 13 m/s 740 mmHg 88%
    03:00 -2°C° 0 mm 12 m/s 741 mmHg 84%
    04:00 -2°C° 0 mm 11 m/s 743 mmHg 80%
    05:00 -2°C° 0 mm 10 m/s 744 mmHg 75%
    06:00 -2°C° 0 mm 10 m/s 746 mmHg 76%
    07:00 -1°C° 0 mm 9 m/s 747 mmHg 77%
    08:00 -1°C° 0 mm 9 m/s 748 mmHg 78%
    09:00 -1°C° 0 mm 8 m/s 749 mmHg 72%
    10:00 0°C° 0 mm 7 m/s 749 mmHg 67%
    11:00 +2°C° 0 mm 7 m/s 750 mmHg 61%
    12:00 +3°C° 0 mm 6 m/s 750 mmHg 58%
    13:00 +3°C° 0 mm 6 m/s 750 mmHg 55%
    14:00 +4°C° 0 mm 6 m/s 750 mmHg 52%
    15:00 +3°C° 0 mm 5 m/s 750 mmHg 56%
    16:00 +3°C° 0 mm 5 m/s 750 mmHg 60%
    17:00 +3°C° 0 mm 4 m/s 750 mmHg 64%
    18:00 +2°C° 0 mm 5 m/s 750 mmHg 67%
    19:00 +1°C° 0 mm 5 m/s 750 mmHg 69%
    20:00 +1°C° 0 mm 5 m/s 750 mmHg 72%
    21:00 +1°C° 0 mm 5 m/s 750 mmHg 76%
    22:00 +1°C° 0 mm 5 m/s 750 mmHg 80%
    23:00 +1°C° 0 mm 5 m/s 750 mmHg 84%

    26 Février, Mercredi

    Heure Température Précipitation Vent Pression Humidité
    00:00 +1°C° 0 mm 5 m/s 749 mmHg 84%
    01:00 +1°C° 0 mm 5 m/s 749 mmHg 85%
    02:00 +1°C° 0 mm 6 m/s 749 mmHg 86%
    03:00 +1°C° 0 mm 6 m/s 748 mmHg 87%
    04:00 0°C° 0 mm 7 m/s 748 mmHg 88%
    05:00 0°C° 0 mm 7 m/s 748 mmHg 89%
    06:00 0°C° 0 mm 8 m/s 747 mmHg 86%
    07:00 +1°C° 0 mm 8 m/s 747 mmHg 84%
    08:00 +2°C° 0 mm 9 m/s 747 mmHg 81%
    09:00 +3°C° 0 mm 9 m/s 747 mmHg 77%
    10:00 +3°C° 0 mm 10 m/s 746 mmHg 73%
    11:00 +5°C° 0 mm 10 m/s 746 mmHg 69%
    12:00 +6°C° 0 mm 10 m/s 746 mmHg 67%
    13:00 +6°C° 0 mm 10 m/s 745 mmHg 65%
    14:00 +6°C° 0 mm 10 m/s 745 mmHg 63%
    15:00 +6°C° 0 mm 10 m/s 745 mmHg 66%
    16:00 +5°C° 0 mm 10 m/s 744 mmHg 69%
    17:00 +3°C° 0 mm 9 m/s 744 mmHg 71%
    18:00 +3°C° 0 mm 9 m/s 744 mmHg 73%
    19:00 +3°C° 0 mm 9 m/s 744 mmHg 75%
    20:00 +3°C° 0 mm 9 m/s 744 mmHg 77%
    21:00 +2°C° 0 mm 8 m/s 744 mmHg 79%
    22:00 +3°C° 0 mm 7 m/s 744 mmHg 82%
    23:00 +3°C° 0 mm 6 m/s 744 mmHg 84%

    27 Février, Jeudi

    Heure Température Précipitation Vent Pression Humidité
    00:00 +3°C° 0 mm 6 m/s 744 mmHg 85%
    01:00 +3°C° 0 mm 6 m/s 744 mmHg 86%
    02:00 +3°C° 0 mm 5 m/s 744 mmHg 87%
    03:00 +3°C° 0 mm 5 m/s 744 mmHg 87%
    04:00 +3°C° 0 mm 5 m/s 743 mmHg 87%
    05:00 +3°C° 0 mm 5 m/s 743 mmHg 87%
    06:00 +3°C° 0 mm 5 m/s 743 mmHg 84%
    07:00 +5°C° 0 mm 5 m/s 743 mmHg 80%
    08:00 +6°C° 0 mm 5 m/s 743 mmHg 76%
    09:00 +7°C° 0 mm 6 m/s 743 mmHg 73%
    10:00 +8°C° 0 mm 7 m/s 743 mmHg 70%
    11:00 +9°C° 0 mm 7 m/s 743 mmHg 67%
    12:00 +9°C° 0 mm 7 m/s 743 mmHg 67%
    13:00 +9°C° 0 mm 7 m/s 742 mmHg 66%
    14:00 +9°C° 0 mm 7 m/s 742 mmHg 66%
    15:00 +9°C° 0 mm 7 m/s 742 mmHg 68%
    16:00 +8°C° 0 mm 6 m/s 742 mmHg 71%
    17:00 +8°C° 0 mm 6 m/s 742 mmHg 73%
    18:00 +7°C° 0 mm 6 m/s 742 mmHg 75%
    19:00 +7°C° 0 mm 6 m/s 742 mmHg 77%
    20:00 +7°C° 0 mm 6 m/s 742 mmHg 79%
    21:00 +7°C° 0 mm 6 m/s 742 mmHg 79%
    22:00 +6°C° 0 mm 5 m/s 741 mmHg 79%
    23:00 +6°C° 0 mm 5 m/s 741 mmHg 79%

    28 Février, Vendredi

    Heure Température Précipitation Vent Pression Humidité
    00:00 +6°C° 0 mm 4 m/s 741 mmHg 79%
    01:00 +6°C° 0 mm 4 m/s 741 mmHg 79%
    02:00 +7°C° 0 mm 3 m/s 740 mmHg 80%
    03:00 +7°C° 0.1 mm 3 m/s 740 mmHg 81%
    04:00 +5°C° 0.1 mm 4 m/s 739 mmHg 83%
    05:00 +5°C° 0.1 mm 4 m/s 739 mmHg 84%
    06:00 +6°C° 1 mm 5 m/s 739 mmHg 87%
    07:00 +5°C° 1 mm 6 m/s 739 mmHg 90%
    08:00 +5°C° 1 mm 8 m/s 739 mmHg 94%
    09:00 +5°C° 0.1 mm 8 m/s 739 mmHg 86%
    10:00 +5°C° 0.1 mm 9 m/s 739 mmHg 77%
    11:00 +6°C° 0.1 mm 10 m/s 739 mmHg 69%
    12:00 +5°C° 0 mm 10 m/s 740 mmHg 70%
    13:00 +5°C° 0 mm 10 m/s 740 mmHg 71%
    14:00 +5°C° 0 mm 10 m/s 740 mmHg 73%
    15:00 +3°C° 0 mm 10 m/s 741 mmHg 74%
    16:00 +3°C° 0 mm 10 m/s 742 mmHg 75%
    17:00 +2°C° 0 mm 9 m/s 743 mmHg 76%
    18:00 +2°C° 0 mm 9 m/s 744 mmHg 75%
    19:00 +1°C° 0 mm 8 m/s 745 mmHg 74%
    20:00 +2°C° 0 mm 7 m/s 746 mmHg 73%
    21:00 +1°C° 0 mm 6 m/s 747 mmHg 73%
    22:00 -1°C° 0 mm 6 m/s 748 mmHg 72%
    23:00 0°C° 0 mm 5 m/s 748 mmHg 72%
    Voir plus